User: anonymous   Login
Location: Caltech
(34.1382°N, 118.1253°W)
Time: 21:53:49
(UTC-07:00)
Language:

PANSAT - Orbit

View from above orbital plane
View from above orbital plane
View from above satellite
View from above satellite

Ground track
Ground track

The orbit data is extracted from the following two-line orbital elements,

1 25520U 98064B   14303.47317384  .00005962  00000-0  22831-3 0  6076
2 25520 028.4591 034.4150 0004519 152.1844 305.8035 15.24341051887290
Epoch (UTC): 30 October 2014 11:21:22
Eccentricity: 0.0004519
inclination: 28.4591°
perigee height: 489 km
apogee height: 496 km
right ascension of ascending node: 34.4150°
argument of perigee: 152.1844°
revolutions per day: 15.24341051
mean anomaly at epoch: 305.8035°
orbit number at epoch: 88729

The dashed part of the orbit path shows where the satellite is in the earth's shadow,  

DLR